Simultaneous Nadir Overpasses (SNOs) Predictions

Prediction of SNOs between FY3D and AQUA Satellite Orbit:

Table of predicted SNOs for the next 14.0 days since TLE Epoch: 9/11/2021
Index Date (FY3D) Time (FY3D) Lat,Lon (FY3D) SZA (FY3D ) Date (AQUA) Time (AQUA) Lat,Lon (AQUA) SZA (AQUA ) Distance(km) Time Diff (sec)
1 09/11/2021 23:29:43 66.54,-168.09 62.35 09/11/2021 23:30:38 66.54,-168.10 62.36 0.74 55
2 09/12/2021 00:19:08 -62.27, 3.31 121.65 09/12/2021 00:18:48 -62.26, 3.33 121.67 1.38 20
3 09/14/2021 15:46:26 67.90, -53.74 64.69 09/14/2021 15:47:31 67.89, -53.69 64.69 2.19 65
4 09/14/2021 16:35:36 -62.82, 118.79 120.10 09/14/2021 16:35:27 -62.82, 118.78 120.10 0.70 9
5 09/17/2021 08:04:23 73.13, 53.56 70.96 09/17/2021 08:05:36 73.19, 54.10 71.00 18.71 73
6 09/17/2021 08:52:21 -64.37,-126.65 117.61 09/17/2021 08:52:22 -64.36,-126.62 117.61 1.29 1
7 09/17/2021 09:40:55 56.95, 46.24 55.66 09/17/2021 09:39:42 56.96, 46.20 55.62 2.44 73
8 09/20/2021 01:08:42 -64.54, -10.86 116.40 09/20/2021 01:08:54 -64.55, -10.90 116.39 2.12 12
9 09/20/2021 01:58:02 59.72, 160.38 59.20 09/20/2021 01:56:58 59.72, 160.40 59.17 1.58 64
10 09/22/2021 17:25:19 -65.58, 104.05 114.37 09/22/2021 17:25:41 -65.59, 104.02 114.36 1.42 22



Historial Predications of SNOs between FY3D and AQUA
